EW7912 Weather Reports


time (UTC)temp
C
wind
direction
speed
KPH
gust
KPH
rain 1hr
cm
rain 24hr
cm
rain mn
cm
humidity
%
barometer
mb
20211026185729 27 206 4.8 19.3 0.00 0.00 0.00 73 1010.5
20211026185225 27 153 4.8 16.1 0.00 0.00 0.00 74 1010.6
20211026184718 27 302 4.8 14.5 0.00 0.00 0.00 75 1010.5
20211026184212 27 139 3.2 11.3 0.00 0.00 0.00 77 1010.7
20211026183706 26 150 4.8 12.9 0.00 0.00 0.00 77 1010.9
20211026183159 26 157 4.8 12.9 0.00 0.00 0.00 78 1011.0
20211026182654 26 80 4.8 14.5 0.00 0.00 0.00 78 1011.0
20211026182148 26 257 4.8 14.5 0.00 0.00 0.00 79 1011.1
20211026181642 26 171 3.2 12.9 0.00 0.00 0.00 79 1011.3
20211026181135 25 196 3.2 11.3 0.00 0.00 0.00 82 1011.4
20211026180630 25 178 3.2 12.9 0.00 0.00 0.00 81 1011.5
20211026180124 25 139 3.2 14.5 0.00 0.00 0.00 81 1011.7
20211026175618 25 138 3.2 11.3 0.00 0.00 0.00 82 1011.8
20211026175111 25 137 3.2 9.7 0.00 0.00 0.00 83 1012.1
20211026174607 25 71 3.2 8.0 0.00 0.00 0.00 85 1012.0
20211026174059 24 165 1.6 8.0 0.00 0.00 0.00 85 1012.3
20211026173554 24 174 3.2 8.0 0.00 0.00 0.00 86 1012.5
20211026173047 23 121 3.2 6.4 0.00 0.00 0.00 86 1012.6
20211026172542 23 103 1.6 6.4 0.00 0.00 0.00 87 1012.9
20211026172036 23 157 1.6 4.8 0.00 0.00 0.00 87 1012.9
20211026171529 22 126 3.2 6.4 0.00 0.00 0.00 87 1013.0
20211026171024 22 162 3.2 6.4 0.00 0.00 0.00 87 1013.1
20211026170520 22 139 1.6 6.4 0.00 0.00 0.00 87 1013.2
20211026170018 22 101 3.2 6.4 0.00 0.00 0.00 87 1013.3
20211026165520 22 148 3.2 6.4 0.00 0.00 0.00 86 1013.3
20211026165018 22 105 1.6 8.0 0.00 0.00 0.00 86 1013.4
20211026164521 22 99 1.6 8.0 0.00 0.00 0.00 86 1013.5
20211026164016 22 182 3.2 8.0 0.00 0.00 0.00 85 1013.5
20211026163523 22 177 3.2 8.0 0.00 0.00 0.00 86 1013.7
20211026163025 21 112 1.6 8.0 0.00 0.00 0.00 86 1013.7
20211026162515 21 93 1.6 4.8 0.00 0.00 0.00 87 1013.8
20211026162016 21 162 1.6 8.0 0.00 0.00 0.00 87 1013.9
20211026161516 21 78 0.0 8.0 0.00 0.00 0.00 87 1013.9
20211026161015 21 64 1.6 8.0 0.00 0.00 0.00 88 1013.9
20211026160516 21 113 1.6 8.0 0.00 0.00 0.00 88 1014.0
20211026160020 21 86 1.6 6.4 0.00 0.00 0.00 88 1014.0
20211026155514 21 96 1.6 6.4 0.00 0.00 0.00 89 1014.0
20211026155010 21 115 1.6 6.4 0.00 0.00 0.00 89 1014.1
20211026154509 21 82 1.6 8.0 0.00 0.00 0.00 89 1014.1
20211026154009 21 165 3.2 8.0 0.00 0.00 0.00 89 1014.1
20211026153509 21 145 3.2 9.7 0.00 0.00 0.00 89 1014.0
20211026153010 21 84 3.2 11.3 0.00 0.00 0.00 88 1014.2
20211026152509 21 82 3.2 11.3 0.00 0.00 0.00 88 1014.1
20211026152009 21 159 3.2 9.7 0.00 0.00 0.00 88 1014.0
20211026151510 21 86 4.8 12.9 0.00 0.00 0.00 88 1014.1
20211026151009 21 63 4.8 16.1 0.00 0.00 0.00 87 1014.1
20211026150506 21 67 4.8 16.1 0.00 0.00 0.00 88 1014.2
20211026150016 21 162 4.8 12.9 0.00 0.00 0.00 88 1014.2
20211026145506 21 188 4.8 12.9 0.00 0.00 0.00 88 1014.3
20211026145005 21 178 3.2 11.3 0.00 0.00 0.00 88 1014.3
20211026144512 21 90 3.2 12.9 0.00 0.00 0.00 89 1014.3
20211026144010 21 72 3.2 12.9 0.00 0.00 0.00 89 1014.3
20211026143508 21 138 3.2 11.3 0.00 0.00 0.00 90 1014.3
20211026143006 21 171 4.8 14.5 0.00 0.00 0.00 91 1014.3
20211026142508 21 121 4.8 14.5 0.00 0.00 0.00 91 1014.3
20211026142001 20 169 4.8 14.5 0.00 0.00 0.00 92 1014.2
20211026141509 20 142 4.8 14.5 0.00 0.00 0.00 92 1014.2
20211026141001 20 182 3.2 11.3 0.00 0.00 0.00 93 1014.2
20211026140501 20 154 1.6 9.7 0.00 0.00 0.00 93 1014.2
20211026140003 20 92 1.6 6.4 0.00 0.00 0.00 93 1014.1
20211026135501 20 88 1.6 6.4 0.00 0.00 0.00 94 1014.1
20211026135001 20 87 1.6 6.4 0.00 0.00 0.00 94 1014.0
20211026134502 20 171 1.6 9.7 0.00 0.00 0.00 94 1014.1
20211026134001 20 80 1.6 9.7 0.00 0.00 0.00 94 1014.0
20211026133455 20 142 3.2 11.3 0.00 0.00 0.00 94 1014.0
20211026132956 20 142 3.2 11.3 0.00 0.00 0.00 94 1013.9
20211026132455 21 107 1.6 6.4 0.00 0.00 0.00 94 1013.9
20211026131955 21 124 1.6 6.4 0.00 0.00 0.00 94 1013.9
20211026131458 21 94 1.6 6.4 0.00 0.00 0.00 94 1013.8
20211026130955 21 87 1.6 6.4 0.00 0.00 0.00 94 1013.9
20211026130454 21 125 0.0 3.2 0.00 0.00 0.00 94 1013.9
20211026125951 21 125 0.0 0.0 0.00 0.00 0.00 94 1013.8
20211026125449 21 125 0.0 0.0 0.00 0.00 0.00 94 1013.8
20211026124948 21 131 0.0 1.6 0.00 0.00 0.00 94 1013.8
20211026124446 21 130 0.0 3.2 0.00 0.00 0.00 94 1013.8
20211026123945 21 130 0.0 3.2 0.00 0.00 0.00 94 1013.8
20211026123445 21 134 1.6 4.8 0.00 0.00 0.00 94 1013.9
20211026122945 21 134 1.6 4.8 0.00 0.00 0.00 94 1013.9
20211026122445 21 134 1.6 6.4 0.00 0.00 0.00 93 1013.9
20211026121945 21 149 1.6 6.4 0.00 0.00 0.00 93 1013.8
20211026121449 21 144 1.6 6.4 0.00 0.00 0.00 93 1013.8
20211026120940 21 169 1.6 6.4 0.00 0.00 0.00 93 1013.7
20211026120434 21 85 0.0 3.2 0.00 0.00 0.00 93 1013.6
20211026115929 21 139 1.6 3.2 0.00 0.00 0.00 93 1013.6
20211026115422 21 109 1.6 4.8 0.00 0.00 0.00 93 1013.7
20211026114916 21 109 1.6 4.8 0.00 0.00 0.00 93 1013.7
20211026114410 21 136 3.2 9.7 0.00 0.00 0.00 93 1013.7
20211026113904 21 76 3.2 9.7 0.00 0.00 0.00 93 1013.8
20211026113358 20 113 1.6 8.0 0.00 0.00 0.00 93 1013.8
20211026112852 20 93 1.6 6.4 0.00 0.00 0.00 93 1013.7
20211026112346 20 78 0.0 4.8 0.00 0.00 0.00 93 1013.7
20211026111840 20 75 0.0 0.0 0.00 0.00 0.00 93 1013.7
20211026111334 20 75 0.0 0.0 0.00 0.00 0.00 93 1013.8
20211026110828 20 73 0.0 1.6 0.00 0.00 0.00 93 1013.6
20211026110322 20 73 0.0 1.6 0.00 0.00 0.00 93 1013.6
20211026105817 20 73 0.0 1.6 0.00 0.00 0.00 93 1013.7
20211026105310 20 73 1.6 4.8 0.00 0.00 0.00 93 1013.6
20211026104804 20 73 0.0 4.8 0.00 0.00 0.00 93 1013.6
20211026104258 20 62 0.0 0.0 0.00 0.00 0.00 93 1013.4
20211026103752 20 62 0.0 0.0 0.00 0.00 0.00 93 1013.3
20211026103246 20 62 0.0 0.0 0.00 0.00 0.00 93 1013.4
20211026102740 20 62 0.0 0.0 0.00 0.00 0.00 93 1013.4
20211026102234 20 62 0.0 0.0 0.00 0.00 0.00 92 1013.4
20211026101728 20 62 0.0 0.0 0.00 0.00 0.00 93 1013.4
20211026101222 20 62 0.0 0.0 0.00 0.00 0.00 93 1013.4
20211026100717 20 62 0.0 0.0 0.00 0.00 0.00 92 1013.4
20211026100212 20 62 0.0 0.0 0.00 0.00 0.00 92 1013.5
20211026095704 20 62 0.0 0.0 0.00 0.00 0.00 92 1013.4
20211026095158 20 62 0.0 0.0 0.00 0.00 0.00 92 1013.4
20211026094652 20 62 0.0 0.0 0.00 0.00 0.00 92 1013.3
20211026094147 20 62 0.0 0.0 0.00 0.00 0.00 92 1013.3
20211026093640 20 62 0.0 0.0 0.00 0.00 0.00 92 1013.3
20211026093135 20 62 0.0 0.0 0.00 0.00 0.00 92 1013.3
20211026092628 20 62 0.0 0.0 0.00 0.00 0.00 92 1013.4
20211026092122 20 62 0.0 0.0 0.00 0.00 0.00 92 1013.4
20211026091615 20 62 0.0 0.0 0.00 0.00 0.00 92 1013.4
20211026091110 20 62 0.0 0.0 0.00 0.00 0.00 92 1013.3
20211026090614 20 62 0.0 0.0 0.00 0.00 0.00 92 1013.3
20211026090121 20 62 0.0 3.2 0.00 0.00 0.00 92 1013.2
20211026085601 20 62 1.6 3.2 0.00 0.00 0.00 92 1013.1
20211026085055 20 62 1.6 3.2 0.00 0.00 0.00 91 1013.3
20211026084549 20 62 1.6 3.2 0.00 0.00 0.00 91 1013.3
20211026084043 20 35 0.0 0.0 0.00 0.00 0.00 92 1013.3
20211026083537 20 355 0.0 0.0 0.00 0.00 0.00 92 1013.3
20211026083034 20 355 0.0 0.0 0.00 0.00 0.00 91 1013.3
20211026082526 20 355 0.0 0.0 0.00 0.00 0.00 91 1013.4
20211026082023 20 355 0.0 0.0 0.00 0.00 0.00 91 1013.3
20211026081505 20 355 0.0 0.0 0.00 0.00 0.00 91 1013.3
20211026080958 20 355 0.0 0.0 0.00 0.00 0.00 90 1013.4
20211026080452 20 355 0.0 0.0 0.00 0.00 0.00 90 1013.3
20211026075946 20 355 0.0 0.0 0.00 0.00 0.00 90 1013.4
20211026075440 20 355 0.0 0.0 0.00 0.00 0.00 90 1013.4
20211026074934 20 355 0.0 0.0 0.00 0.00 0.00 90 1013.4
20211026074428 20 355 0.0 0.0 0.00 0.00 0.00 90 1013.4
20211026073922 20 355 0.0 0.0 0.00 0.00 0.00 89 1013.4
20211026073416 20 355 0.0 0.0 0.00 0.00 0.00 89 1013.5
20211026072910 20 355 0.0 0.0 0.00 0.00 0.00 89 1013.7
20211026072404 20 355 0.0 0.0 0.00 0.00 0.00 89 1013.7
20211026071858 20 355 0.0 0.0 0.00 0.00 0.00 89 1013.6
20211026071353 20 355 0.0 0.0 0.00 0.00 0.00 89 1013.6
20211026070847 20 355 0.0 0.0 0.00 0.00 0.00 89 1013.6
20211026070340 20 355 0.0 0.0 0.00 0.00 0.00 89 1013.7
20211026065836 20 355 0.0 0.0 0.00 0.00 0.00 89 1013.8
20211026065329 20 355 0.0 0.0 0.00 0.00 0.00 88 1013.8
20211026064822 20 355 0.0 0.0 0.00 0.00 0.00 88 1013.8
20211026064316 20 355 0.0 0.0 0.00 0.00 0.00 89 1013.8
20211026063810 20 355 0.0 0.0 0.00 0.00 0.00 89 1013.8
20211026063304 20 355 0.0 0.0 0.00 0.00 0.00 88 1013.8
20211026062758 20 355 0.0 0.0 0.00 0.00 0.00 88 1013.8
20211026062252 20 355 0.0 0.0 0.00 0.00 0.00 88 1013.9
20211026061746 20 355 0.0 0.0 0.00 0.00 0.00 88 1013.8
20211026061240 20 355 0.0 0.0 0.00 0.00 0.00 88 1013.8
20211026060734 20 355 0.0 0.0 0.00 0.00 0.00 88 1013.8
20211026060228 20 355 0.0 0.0 0.00 0.00 0.00 88 1013.9
20211026055722 20 355 0.0 0.0 0.00 0.00 0.00 88 1013.9
20211026055216 20 355 0.0 0.0 0.00 0.00 0.00 88 1013.9
20211026054710 20 355 0.0 0.0 0.00 0.00 0.00 88 1014.0
20211026054205 20 355 0.0 0.0 0.00 0.00 0.00 88 1014.0
20211026053658 20 355 0.0 0.0 0.00 0.00 0.00 88 1014.0
20211026053153 20 355 0.0 0.0 0.00 0.00 0.00 87 1014.0
20211026052646 20 355 0.0 0.0 0.00 0.00 0.00 87 1014.0
20211026052139 20 355 0.0 0.0 0.00 0.00 0.00 87 1014.1
20211026051634 20 355 0.0 0.0 0.00 0.00 0.00 87 1014.0
20211026051128 20 355 0.0 0.0 0.00 0.00 0.00 87 1014.1
20211026050622 20 355 0.0 0.0 0.00 0.00 0.00 87 1014.2
20211026050116 20 355 0.0 0.0 0.00 0.00 0.00 87 1014.2
20211026045615 20 355 0.0 0.0 0.00 0.00 0.00 87 1014.3
20211026045113 20 355 0.0 0.0 0.00 0.00 0.00 87 1014.2
20211026044612 20 355 0.0 0.0 0.00 0.00 0.00 87 1014.3
20211026044113 21 355 0.0 0.0 0.00 0.00 0.00 86 1014.4
20211026043612 21 355 0.0 0.0 0.00 0.00 0.00 86 1014.3
20211026043112 20 355 0.0 0.0 0.00 0.00 0.00 87 1014.3
20211026042610 21 355 0.0 0.0 0.00 0.00 0.00 87 1014.3
20211026042110 21 355 0.0 0.0 0.00 0.00 0.00 87 1014.3
20211026041610 21 355 0.0 0.0 0.00 0.00 0.00 87 1014.2
20211026041111 21 355 0.0 0.0 0.00 0.00 0.00 87 1014.3
20211026040610 21 355 0.0 0.0 0.00 0.00 0.00 87 1014.3
20211026040110 21 355 0.0 0.0 0.00 0.00 0.00 87 1014.3
20211026035607 21 355 0.0 0.0 0.00 0.00 0.00 86 1014.3
20211026035107 21 355 0.0 0.0 0.00 0.00 0.00 86 1014.3
20211026034606 21 355 0.0 0.0 0.00 0.00 0.00 86 1014.3
20211026034107 21 355 0.0 0.0 0.00 0.00 0.00 86 1014.2
20211026033606 21 355 0.0 0.0 0.00 0.00 0.00 87 1014.3
20211026033107 21 355 0.0 0.0 0.00 0.00 0.00 87 1014.3
20211026032606 21 355 0.0 0.0 0.00 0.00 0.00 87 1014.3
20211026032107 21 355 0.0 0.0 0.00 0.00 0.00 87 1014.3
20211026031607 21 355 0.0 0.0 0.00 0.00 0.00 87 1014.3
20211026031106 21 355 0.0 0.0 0.00 0.00 0.00 87 1014.3
20211026030607 21 355 0.0 0.0 0.00 0.00 0.00 87 1014.3
20211026030107 21 355 0.0 0.0 0.00 0.00 0.00 86 1014.2
20211026025606 22 355 0.0 0.0 0.00 0.00 0.00 87 1014.3
20211026025106 22 355 0.0 0.0 0.00 0.00 0.00 86 1014.3
20211026024606 22 355 0.0 0.0 0.00 0.00 0.00 86 1014.3
20211026024106 22 355 0.0 0.0 0.00 0.00 0.00 86 1014.3
20211026023606 22 355 0.0 0.0 0.00 0.00 0.00 86 1014.3
20211026023106 22 355 0.0 0.0 0.00 0.00 0.00 86 1014.3
20211026022606 22 355 0.0 0.0 0.00 0.00 0.00 87 1014.2
20211026022106 22 355 0.0 0.0 0.00 0.00 0.00 86 1014.2
20211026021607 22 355 0.0 0.0 0.00 0.00 0.00 86 1014.1
20211026021106 22 355 0.0 0.0 0.00 0.00 0.00 84 1014.0
20211026020606 22 355 0.0 0.0 0.00 0.00 0.00 83 1014.0
20211026020105 22 355 0.0 0.0 0.00 0.00 0.00 83 1013.9
20211026015604 22 355 0.0 0.0 0.00 0.00 0.00 85 1013.9
20211026015105 22 355 0.0 0.0 0.00 0.00 0.00 84 1013.9
20211026014601 22 355 0.0 0.0 0.00 0.00 0.00 85 1013.8
20211026014056 22 355 0.0 0.0 0.00 0.00 0.00 84 1013.8
20211026013550 23 355 0.0 0.0 0.00 0.00 0.00 84 1013.8
20211026013043 23 355 0.0 0.0 0.00 0.00 0.00 84 1013.8
20211026012538 23 355 0.0 0.0 0.00 0.00 0.00 84 1013.7
20211026012032 23 355 0.0 0.0 0.00 0.00 0.00 83 1013.7
20211026011526 23 355 0.0 0.0 0.00 0.00 0.00 83 1013.7
20211026011022 23 355 0.0 0.0 0.00 0.00 0.00 83 1013.6
20211026010514 23 355 0.0 0.0 0.00 0.00 0.00 82 1013.6
20211026010008 23 355 0.0 0.0 0.00 0.00 0.00 82 1013.5
20211026005504 24 355 0.0 0.0 0.00 0.00 0.00 82 1013.4
20211026004955 24 355 0.0 0.0 0.00 0.00 0.00 82 1013.4
20211026004456 24 355 0.0 0.0 0.00 0.00 0.00 82 1013.4
20211026003956 24 355 0.0 0.0 0.00 0.00 0.00 81 1013.4
20211026003458 24 355 0.0 0.0 0.00 0.00 0.00 81 1013.3
20211026002957 25 355 0.0 0.0 0.00 0.00 0.00 81 1013.3
20211026002456 25 355 0.0 0.0 0.00 0.00 0.00 80 1013.1
20211026001954 25 355 0.0 0.0 0.00 0.00 0.00 80 1013.0
20211026001453 25 355 0.0 0.0 0.00 0.00 0.00 79 1013.0
20211026000952 25 355 0.0 0.0 0.00 0.00 0.00 78 1012.8
20211026000453 25 355 0.0 0.0 0.00 0.00 0.00 78 1012.8
20211025235950 26 355 0.0 0.0 0.00 0.00 0.00 77 1012.8
20211025235448 26 355 0.0 0.0 0.00 0.00 0.00 77 1012.8
20211025234948 26 355 0.0 0.0 0.00 0.00 0.00 76 1012.8
20211025234448 26 355 0.0 0.0 0.00 0.00 0.00 75 1012.7
20211025233948 26 355 0.0 0.0 0.00 0.00 0.00 75 1012.6
20211025233448 27 355 0.0 0.0 0.00 0.00 0.00 74 1012.7
20211025232948 27 355 0.0 1.6 0.00 0.00 0.00 73 1012.7
20211025232447 27 355 0.0 1.6 0.00 0.00 0.00 73 1012.7
20211025231941 28 355 0.0 1.6 0.00 0.00 0.00 72 1012.6
20211025231435 28 91 0.0 1.6 0.00 0.00 0.00 71 1012.6
20211025230929 28 91 0.0 3.2 0.00 0.00 0.00 70 1012.5
20211025230423 28 91 0.0 3.2 0.00 0.00 0.00 70 1012.4
20211025225917 28 91 0.0 3.2 0.00 0.00 0.00 69 1012.4
20211025225412 29 91 1.6 4.8 0.00 0.00 0.00 68 1012.4
20211025224906 29 82 1.6 4.8 0.00 0.00 0.00 67 1012.4
20211025224401 29 63 1.6 4.8 0.00 0.00 0.00 66 1012.3
20211025223853 29 39 1.6 3.2 0.00 0.00 0.00 67 1012.3
20211025223352 29 120 1.6 4.8 0.00 0.00 0.00 68 1012.3
20211025222842 30 177 1.6 6.4 0.00 0.00 0.00 67 1012.4
20211025222336 30 65 1.6 6.4 0.00 0.00 0.00 67 1012.3
20211025221829 30 83 1.6 4.8 0.00 0.00 0.00 66 1012.4
20211025221323 30 82 1.6 4.8 0.00 0.00 0.00 66 1012.3
20211025220818 30 72 3.2 6.4 0.00 0.00 0.00 64 1012.4
20211025220312 30 74 3.2 6.4 0.00 0.00 0.00 64 1012.4
20211025215806 30 78 3.2 8.0 0.00 0.00 0.00 65 1012.4
20211025215300 30 84 3.2 8.0 0.00 0.00 0.00 64 1012.4
20211025214800 30 62 3.2 8.0 0.00 0.00 0.00 63 1012.4
20211025214300 30 55 3.2 8.0 0.00 0.00 0.00 63 1012.3
20211025213800 30 180 1.6 8.0 0.00 0.00 0.00 63 1012.4
20211025213300 30 49 3.2 11.3 0.00 0.00 0.00 65 1012.4
20211025212800 30 68 3.2 11.3 0.00 0.00 0.00 64 1012.5
20211025212301 30 47 1.6 8.0 0.00 0.00 0.00 64 1012.4
20211025211800 30 67 1.6 8.0 0.00 0.00 0.00 64 1012.4
20211025211258 30 62 1.6 6.4 0.00 0.00 0.00 64 1012.4
20211025210756 30 80 3.2 6.4 0.00 0.00 0.00 65 1012.5
20211025210256 30 51 3.2 8.0 0.00 0.00 0.00 64 1012.5
20211025205756 30 5 1.6 8.0 0.00 0.00 0.00 65 1012.5
20211025205256 30 73 1.6 6.4 0.00 0.00 0.00 64 1012.4
20211025204756 30 70 0.0 3.2 0.00 0.00 0.00 64 1012.4
20211025204256 30 80 1.6 6.4 0.00 0.00 0.00 63 1012.4
20211025203756 30 79 1.6 6.4 0.00 0.00 0.00 66 1012.5
20211025203256 30 76 3.2 8.0 0.00 0.00 0.00 65 1012.6
20211025202756 30 88 3.2 8.0 0.00 0.00 0.00 64 1012.5
20211025202250 30 91 3.2 8.0 0.00 0.00 0.00 64 1012.6
20211025201743 30 55 4.8 9.7 0.00 0.00 0.00 64 1012.6
20211025201237 30 48 3.2 9.7 0.00 0.00 0.00 64 1012.6
20211025200732 30 200 3.2 14.5 0.00 0.00 0.00 65 1012.7
20211025200226 30 48 3.2 14.5 0.00 0.00 0.00 65 1012.7
20211025195719 30 278 3.2 8.0 0.00 0.00 0.00 64 1012.7
20211025195213 30 30 1.6 8.0 0.00 0.00 0.00 65 1012.8
20211025194708 30 272 3.2 8.0 0.00 0.00 0.00 64 1012.8
20211025194202 30 344 3.2 8.0 0.00 0.00 0.00 64 1012.9
20211025193656 30 330 3.2 9.7 0.00 0.00 0.00 65 1013.0
20211025193150 30 39 3.2 9.7 0.00 0.00 0.00 65 1013.0
20211025192644 30 323 3.2 11.3 0.00 0.00 0.00 66 1013.1
20211025192137 30 42 4.8 11.3 0.00 0.00 0.00 66 1013.1
20211025191631 30 329 3.2 8.0 0.00 0.00 0.00 65 1013.2
20211025191126 30 22 3.2 11.3 0.00 0.00 0.00 66 1013.2
20211025190620 30 78 3.2 11.3 0.00 0.00 0.00 65 1013.2